Location: Санкт-Петербург
(59.9358°N, 30.3401°E)
Time: 16:49:39
(UTC+03:00)

ISS - Pass Details

Date: 31 January 2021
Orbit: 417 x 422 km, 51.6° (Epoch: 18 May)

Event Time Altitude Azimuth Distance (km) Brightness Sun altitude
Rises 18:14:52 0° 249° (WSW) 2,372 2.7 -7.9°
Reaches altitude 10° 18:17:18 10° 232° (SW) 1,509 0.5 -8.2°
Maximum altitude 18:19:53 20° 183° (S) 1,032 -1.5 -8.5°
Drops below altitude 10° 18:22:28 10° 133° (SE) 1,511 -1.2 -8.8°
Enters shadow 18:24:05 - 120° (ESE) 2,071 -0.6 -9.0°
